#timestamp,LO_Frequency,Hit,StdDev 
1522713615.7,286046998.1,N
1522713635.5,286046996.5,N
1522713655.3,286046996.8,N
1522713675.2,286046999.5,N
1522713695.0,286047000.7,N
1522713695.9,286047000.7,N
1522713715.7,286046998.8,N
1522713735.6,286046998.8,N
1522713755.4,286046999.3,N
1522713775.3,286046997.2,N
1522713795.1,286046998.6,N
1522713796.0,286046998.6,N
1522713815.8,286046999.7,N
1522713835.7,286047000.5,N
1522713855.5,286047002.4,N
1522713875.4,286047002.8,N
1522713895.2,286047000.6,N
1522713915.0,286046998.5,N
1522713915.9,286046998.5,N
1522713935.8,286046998.5,N
1522713955.6,286047001.5,N
1522713975.5,286047002.0,N
1522713995.3,286047001.1,N
1522714015.1,286046998.5,N
1522714035.9,286047000.8,N
1522714055.7,286046998.5,N
1522714075.6,286046998.5,N
1522714095.4,286047000.7,N
1522714115.2,286046998.3,N
1522714135.1,286046999.0,N
1522714136.0,286046999.0,N
1522714155.8,286046999.0,N
1522714175.7,286047000.6,N
1522714195.5,286047000.2,N
1522714215.3,286047000.4,N
1522714235.2,286047001.5,N
1522714255.9,286047002.8,N
1522714275.7,286047001.1,N
1522714295.6,286047000.0,N
1522714315.4,286047001.6,N
1522714335.3,286047002.5,N
1522714355.1,286047002.5,N
1522714356.0,286047002.5,N
1522714375.8,286047000.4,N
1522714395.7,286046998.5,N
1522714415.5,286046997.0,N
1522714435.4,286046999.2,N
1522714455.2,286046997.1,N
1522714475.0,286046997.6,N
1522714475.9,286046997.6,N
1522714495.8,286046995.4,N
1522714515.6,286046999.5,N
1522714535.4,286047000.8,N
1522714555.3,286046998.5,N
1522714575.1,286046998.8,N
1522714595.9,286046998.5,N
1522714615.7,286046999.6,N
1522714635.5,286046998.6,N
1522714655.4,286046999.6,N
1522714675.2,286046999.5,N
1522714725.1,286046998.1,E
1522714735.0,286047000.5,N
1522714735.9,286047000.5,P
1522714755.7,286047002.5,P
1522714775.6,286047000.7,N
1522714795.4,286047000.8,N
1522714815.3,286047001.6,N
1522714835.1,286047000.9,N
1522714836.0,286047000.9,N
1522714855.8,286046998.2,N
1522714875.7,286047001.1,N
1522714895.5,286046999.7,N
1522714915.4,286047003.0,N
1522714935.2,286047002.3,N
1522714955.0,286047002.0,N
1522714955.9,286047002.0,N
1522714975.8,286046999.8,N
1522714995.6,286047001.6,N
1522715015.4,286047001.4,N
1522715035.3,286047002.1,N
1522715055.1,286047002.3,N
1522715075.9,286047002.5,N
1522715095.7,286047001.6,N
1522715115.5,286047001.3,N
1522715135.4,286047005.9,Y
1522715155.2,286047004.3,P
1522715175.1,286047003.9,N
1522715176.0,286047003.9,N
1522715195.8,286047004.2,Y
1522715215.6,286047000.6,P
1522715235.5,286046998.5,N
1522715255.3,286046998.5,N
1522715275.1,286046999.2,N
1522715295.9,286047001.2,N
1522715315.7,286047000.9,N
1522715335.6,286047000.5,N
1522715355.4,286046999.0,N
1522715375.2,286046998.4,N
1522715395.1,286046999.1,N
1522715396.0,286046999.1,N
1522715415.8,286046997.1,N
1522715435.7,286046999.0,N
1522715455.5,286046999.2,N
1522715475.3,286046999.3,N
1522715495.2,286046999.2,N
1522715515.9,286046999.2,N
1522715535.7,286046997.7,N
1522715555.6,286046997.6,N
1522715575.4,286046999.6,N
1522715595.3,286047001.2,N
1522715615.1,286047001.0,N
1522715616.0,286047001.0,N
1522715635.8,286046998.4,N
1522715655.7,286046998.9,N
1522715675.5,286046997.3,N
1522715695.4,286046997.5,N
1522715715.2,286046999.2,N
1522715735.0,286046999.6,N
1522715735.9,286046999.6,N
1522715755.8,286046997.0,N
1522715775.6,286046997.1,N
1522715795.4,286046997.1,N
1522715815.3,286046997.6,N
1522715835.1,286046995.0,Y
1522715855.9,286046999.2,P
1522715875.7,286046999.0,P
1522715895.2,286046997.2,P
1522715915.1,286046999.2,N
1522715916.0,286046999.2,N
1522715935.8,286046997.3,Y
1522715955.6,286046997.0,P
1522715975.5,286046997.3,P
1522715995.3,286046998.0,N
1522716015.2,286046997.0,Y
1522716035.9,286046998.3,P
1522716055.7,286046998.6,P
1522716075.6,286046999.4,N
1522716095.4,286046999.6,N
1522716115.2,286046998.9,N
1522716135.1,286046998.7,N
1522716136.0,286046998.7,N
1522716155.8,286046999.0,N
1522716175.7,286046999.0,N
1522716195.5,286047000.5,N
1522716215.3,286046998.2,N
1522716235.2,286047001.2,N
1522716255.0,286046998.2,N
1522716255.9,286046998.2,N
1522716275.8,286047002.2,N
1522716295.6,286047001.2,N
1522716315.4,286046998.5,N
1522716335.3,286046999.1,N
1522716355.1,286046999.3,N
1522716375.9,286046999.4,N
1522716395.7,286046998.6,N
1522716415.5,286046998.4,N
1522716435.4,286046998.1,N
1522716455.2,286046998.7,N
1522716475.0,286046998.6,N
1522716475.9,286046998.6,N
1522716495.8,286046998.9,N
1522716515.6,286046998.7,N
1522716535.5,286046999.1,N
1522716555.3,286046998.3,N
1522716575.1,286046998.1,N
1522716595.9,286046998.4,N
1522716615.7,286046999.4,N
1522716635.5,286046997.4,N
1522716655.4,286046997.2,N
1522716675.2,286046997.3,N
1522716695.1,286046995.3,Y
1522716696.0,286046995.3,P
1522716715.8,286046999.3,N
1522716735.6,286046996.5,N
1522716755.5,286046997.0,N
1522716775.3,286046997.2,N
1522716795.2,286046995.3,Y
1522716815.0,286046998.6,P
1522716815.9,286046998.6,N
1522716835.7,286046998.2,P
1522716855.6,286046998.6,N
1522716875.4,286046998.5,Y
1522716895.3,286046999.7,P
1522716915.1,286046998.5,N
1522716916.0,286046998.5,N
1522716935.8,286046998.9,N
1522716955.7,286046998.2,Y
1522716975.5,286047000.2,P
1522716995.4,286047002.4,P
1522717015.2,286047002.1,N
1522717035.0,286047003.9,N
1522717035.9,286047003.9,N
1522717055.8,286047001.3,N
1522717075.6,286047003.1,N
1522717095.5,286047002.9,N
1522717115.3,286047004.0,N
1522717135.1,286047004.1,N
1522717155.9,286047004.3,N
1522717175.7,286047004.0,N
1522717195.6,286047003.3,N
